Wind_Speed
7 7 6 6 7 7 7 7 6 6 6 6 6 6 5 5 5 4 4 4 4 4 4 4 3 3 3 3 4 5 5 5 5 5 5 4 4 4 3 3 2 2 1
7 7 6 6 6 7 7 6 6 6 5 6 5 5 5 5 4 4 3 4 3 3 3 3 3 2 3 3 3 4 4 4 4 4 4 3 3 3 2 2 2 2 1
6 6 5 5 6 6 6 6 5 5 6 5 5 5 4 4 4 3 3 3 3 3 2 2 2 2 2 3 3 3 4 3 3 3 3 3 3 2 2 2 2 1 1
5 5 5 5 6 6 6 6 5 6 6 5 5 4 4 4 3 3 2 2 2 2 2 1 2 2 2 2 2 3 3 3 3 3 3 2 2 2 2 2 1 1 0
5 6 6 6 6 6 6 6 6 5 5 4 4 4 4 3 3 3 2 2 1 1 1 1 1 1 1 1 1 2 2 2 2 2 2 2 2 2 2 1 0 0 0
5 5 6 7 7 6 6 5 5 5 4 4 4 4 4 3 3 3 3 2 1 1 1 0 0 1 1 1 1 1 2 2 2 2 2 2 2 2 1 0 0 1 1
6 7 7 6 6 6 6 5 4 4 3 4 4 3 4 4 4 3 3 2 1 1 1 1 1 0 1 1 1 1 1 1 1 1 1 1 1 0 0 1 1 1 1
6 7 6 6 6 6 5 5 5 4 3 3 4 4 4 4 4 4 3 3 2 2 2 2 1 1 1 1 0 1 1 1 1 1 1 1 1 1 1 2 2 2 2
7 6 6 6 6 5 5 5 5 4 4 3 3 3 3 4 3 4 4 4 4 3 3 2 2 1 1 0 1 1 0 1 0 1 1 1 1 2 2 2 2 3 3
7 7 6 6 5 4 4 4 4 4 4 3 3 3 3 3 4 3 3 4 4 3 3 3 2 1 1 1 1 1 1 0 0 1 1 1 1 2 2 3 4 4 4
8 7 6 6 5 5 5 5 4 4 4 3 3 3 3 3 3 3 3 4 4 4 3 3 3 2 1 1 1 1 1 1 1 1 2 2 3 3 3 4 5 5 5
8 7 7 6 6 5 4 4 4 4 3 3 3 3 3 3 3 3 3 3 4 4 4 3 2 2 3 3 3 2 2 2 3 3 3 3 4 4 4 5 5 6 6
8 8 7 7 6 5 4 4 4 4 3 4 4 4 4 4 4 4 3 4 5 4 3 3 3 4 4 3 3 3 3 4 4 4 4 5 5 5 6 6 6 6 6
8 8 8 7 7 6 4 4 4 4 3 4 4 4 4 5 6 5 5 5 5 4 4 4 4 4 4 4 4 4 4 5 5 5 5 6 6 7 7 7 7 7 7
9 9 10 8 8 7 5 5 4 4 4 5 5 5 6 7 7 7 6 6 6 6 6 5 5 4 5 5 5 5 6 6 6 6 7 7 8 8 8 8 8 8 8
9 10 10 9 8 7 7 6 6 6 6 6 6 6 7 7 7 8 8 8 7 7 7 7 6 6 6 6 7 7 7 7 7 8 8 8 9 9 9 9 9 10 10
9 9 10 10 10 9 8 7 7 7 8 7 7 8 8 8 8 8 8 8 8 8 8 8 8 8 7 7 8 8 8 8 8 8 8 9 9 9 9 10 10 10 11
9 10 10 11 11 10 9 8 7 8 7 7 8 8 8 9 9 9 9 9 9 8 9 9 9 9 9 9 9 9 9 9 9 9 9 9 9 9 9 9 10 11 11
9 10 10 11 11 10 9 9 8 8 8 8 9 9 9 10 10 10 10 9 9 9 9 9 10 10 10 10 10 9 10 9 10 9 10 10 10 10 10 10 11 11 11
9 9 10 11 11 11 11 10 9 9 10 10 10 10 10 11 11 11 10 10 10 10 10 10 10 10 10 10 10 10 10 10 10 11 11 12 12 12 12 12 11 11 11
9 9 10 10 10 11 11 11 10 10 11 11 11 11 12 12 12 11 12 12 11 11 11 12 12 11 10 10 10 11 10 11 11 12 12 13 13 13 12 12 11 12 11
10 10 10 10 11 11 11 11 11 11 11 12 12 13 13 13 13 12 12 12 12 13 12 12 12 12 11 11 11 12 11 12 12 12 13 14 14 13 13 13 13 12 12
10 10 10 10 11 11 11 11 12 12 13 13 13 14 14 15 14 13 13 13 13 14 13 13 13 13 13 13 13 13 13 13 13 13 14 14 14 15 14 14 14 14 14
10 10 10 11 11 12 12 12 13 13 14 14 14 15 15 15 14 14 14 14 14 14 14 14 14 14 14 14 14 14 15 15 15 14 14 15 14 15 15 15 15 16 15
11 11 11 12 12 12 13 13 13 14 14 15 15 15 14 14 14 14 14 14 14 15 15 15 15 16 16 15 15 16 17 17 16 15 15 15 15 15 15 16 16 16 16
12 12 12 13 13 13 13 13 14 15 16 16 16 15 15 15 15 15 15 15 15 15 15 15 16 16 16 16 17 17 17 17 17 17 17 15 15 16 16 16 16 16 16
Wind_Direction
61 71 74 76 76 78 80 89 95 106 113 124 128 126 127 131 128 122 120 122 107 97 91 89 94 91 105 118 109 98 95 94 102 106 114 108 100 106 107 116 111 105 98
62 70 67 74 80 82 83 87 90 101 112 120 123 124 127 131 130 126 129 124 108 104 96 96 96 96 97 112 108 98 96 92 98 97 111 113 109 112 118 121 105 104 86
54 58 62 70 76 75 78 85 89 102 113 116 118 116 122 128 124 118 128 126 116 112 100 90 98 113 112 120 111 105 103 97 103 104 105 116 119 121 127 127 101 93 83
50 48 64 67 70 68 76 81 81 96 108 110 113 113 113 117 116 114 127 137 125 124 124 96 101 136 146 142 130 115 114 117 111 110 108 114 121 123 137 135 123 72 79
51 52 61 70 74 70 77 86 85 86 100 104 99 104 110 106 105 100 95 122 143 127 133 96 116 160 180 154 137 133 136 134 123 115 125 128 119 118 113 124 152 277 276
54 59 68 78 77 75 75 82 84 79 87 94 90 99 100 92 86 86 89 97 129 138 135 90 305 240 190 147 181 177 166 162 132 123 138 145 129 124 111 84 254 267 285
54 58 65 66 60 67 70 71 77 77 75 82 79 78 82 73 71 81 78 69 87 73 7 355 356 23 186 188 221 209 219 199 142 158 185 188 167 171 295 337 304 301 290
53 53 53 55 53 54 64 68 61 63 65 70 65 60 66 64 71 72 62 47 39 33 19 25 27 350 210 191 103 53 163 132 147 262 268 241 241 245 275 306 290 280 272
56 52 52 56 55 52 57 58 50 46 47 45 47 47 53 50 50 52 45 38 35 32 25 32 30 4 31 45 60 83 74 196 248 321 284 273 261 255 268 282 282 277 275
55 51 52 52 51 52 53 53 46 42 37 35 33 27 32 36 37 36 37 39 34 25 22 28 23 28 43 65 51 7 279 231 348 352 342 312 291 281 282 284 283 279 273
47 46 44 46 43 49 53 51 45 42 38 37 24 21 21 30 33 21 11 21 23 17 15 13 356 348 1 339 333 314 293 262 275 321 334 315 301 290 291 286 281 276 274
45 43 39 39 34 40 40 42 36 42 40 32 16 15 8 13 9 358 3 4 5 5 4 354 333 320 310 306 300 295 296 264 258 278 294 285 286 284 284 288 285 277 276
38 33 26 22 21 27 27 23 19 25 20 22 17 10 6 359 354 349 351 344 343 341 344 341 319 311 300 292 299 300 292 284 280 280 286 282 281 282 282 282 284 276 275
31 26 21 17 17 17 15 9 2 3 6 8 4 2 356 348 342 343 335 333 338 333 328 328 319 313 305 303 299 298 294 287 285 284 283 279 279 282 283 279 278 275 275
21 19 14 10 8 9 5 356 351 341 337 346 352 346 341 339 338 335 332 328 328 329 325 326 315 305 304 301 299 296 290 286 287 283 285 282 280 279 280 279 276 273 273
15 12 8 9 7 5 360 351 342 336 330 332 337 334 333 333 329 330 329 329 324 323 318 317 316 312 308 301 301 297 292 289 289 293 288 284 279 276 277 277 276 273 270
7 5 1 2 1 356 351 352 345 340 338 328 328 330 332 333 327 325 327 325 319 315 313 312 310 308 306 300 297 296 293 295 296 293 288 282 278 276 275 277 275 274 271
358 357 356 356 355 353 351 347 342 334 331 332 329 330 331 331 327 326 325 326 323 317 315 311 305 302 301 300 298 294 291 293 292 291 293 292 287 281 280 282 277 276 275
349 350 350 350 349 348 344 339 334 332 327 325 325 325 325 323 322 322 322 323 320 317 317 315 312 307 304 302 300 295 293 291 292 295 293 293 291 286 283 286 284 280 282
339 339 339 340 341 341 339 336 331 328 327 327 323 322 322 320 320 320 317 316 315 313 311 311 313 310 306 303 303 301 298 296 291 292 291 290 291 290 284 284 285 287 286
330 329 330 331 334 334 335 334 330 327 328 329 322 321 320 317 315 314 313 313 313 312 311 309 309 307 306 306 304 303 302 296 293 289 289 291 290 291 287 282 284 286 285
325 323 322 327 329 330 331 330 329 327 325 326 324 319 319 315 312 312 310 310 311 310 309 308 306 305 304 303 303 303 301 298 295 292 292 291 291 290 288 286 285 286 286
327 325 324 326 327 328 328 328 327 325 325 325 322 319 317 316 313 309 306 307 309 308 305 304 304 306 305 302 301 300 298 296 294 293 290 291 289 286 284 286 286 285 284
327 327 327 326 326 326 326 324 323 322 323 324 322 319 318 316 314 312 309 308 306 305 304 304 304 303 301 301 300 298 297 297 295 297 293 291 289 287 284 285 285 284 284
327 327 326 322 322 322 321 320 320 322 323 323 322 320 320 320 314 311 310 306 303 303 304 304 302 300 298 299 298 297 297 297 297 297 296 292 290 289 286 284 285 284 282
322 322 320 319 318 319 318 317 318 319 320 320 319 319 318 316 315 313 308 305 304 303 303 303 302 300 299 297 297 298 298 298 299 297 298 297 293 290 285 285 287 286 282
Height
5875 5874 5874 5874 5874 5873 5873 5873 5873 5873 5873 5874 5874 5875 5875 5876 5876 5876 5877 5877 5877 5877 5877 5877 5877 5877 5878 5878 5879 5879 5880 5880 5881 5881 5882 5882 5883 5884 5884 5885 5886 5886 5887
5877 5876 5876 5876 5876 5875 5875 5875 5875 5875 5875 5875 5875 5876 5876 5877 5877 5877 5878 5878 5878 5878 5878 5878 5878 5878 5878 5879 5879 5880 5880 5881 5881 5882 5882 5883 5883 5884 5885 5885 5886 5886 5887
5878 5878 5877 5877 5877 5877 5876 5876 5876 5876 5876 5876 5877 5877 5877 5878 5878 5878 5878 5879 5879 5879 5879 5879 5879 5879 5879 5879 5880 5880 5881 5881 5882 5882 5883 5883 5884 5885 5885 5886 5886 5887 5887
5880 5879 5879 5879 5879 5878 5878 5878 5878 5877 5878 5878 5878 5878 5878 5879 5879 5879 5879 5879 5880 5880 5880 5880 5879 5879 5879 5880 5881 5881 5881 5882 5882 5883 5883 5884 5885 5885 5885 5886 5886 5887 5887
5881 5881 5880 5880 5880 5880 5879 5879 5879 5879 5879 5879 5879 5879 5879 5880 5880 5880 5880 5880 5880 5880 5880 5880 5880 5880 5880 5881 5881 5882 5882 5882 5883 5883 5884 5885 5885 5885 5886 5886 5886 5887 5887
5883 5882 5882 5882 5881 5881 5881 5880 5880 5880 5880 5880 5880 5880 5881 5881 5881 5880 5880 5880 5880 5880 5880 5880 5880 5880 5881 5881 5881 5882 5882 5883 5883 5884 5884 5885 5885 5885 5886 5886 5886 5887 5887
5884 5884 5883 5883 5883 5883 5882 5882 5882 5882 5882 5882 5882 5882 5882 5882 5881 5881 5881 5881 5881 5881 5881 5881 5881 5880 5881 5881 5882 5882 5882 5883 5883 5884 5884 5885 5885 5885 5886 5886 5886 5886 5887
5885 5885 5885 5885 5884 5884 5883 5883 5883 5883 5883 5883 5883 5883 5883 5883 5882 5882 5882 5882 5882 5882 5881 5881 5881 5881 5881 5881 5882 5882 5883 5883 5884 5884 5884 5884 5885 5885 5886 5886 5886 5886 5886
5887 5886 5886 5886 5886 5885 5885 5885 5884 5884 5884 5884 5884 5884 5884 5884 5883 5883 5883 5883 5882 5882 5882 5882 5882 5882 5882 5882 5882 5883 5883 5883 5884 5884 5884 5884 5884 5885 5885 5885 5886 5886 5886
5888 5888 5888 5887 5887 5886 5886 5886 5885 5885 5885 5885 5885 5885 5885 5885 5884 5884 5884 5883 5883 5883 5882 5882 5882 5882 5882 5882 5883 5883 5883 5883 5883 5884 5884 5883 5884 5884 5884 5885 5885 5885 5885
5890 5889 5889 5889 5888 5887 5887 5887 5886 5886 5886 5886 5886 5886 5885 5885 5884 5885 5884 5884 5883 5883 5883 5882 5882 5882 5882 5882 5882 5883 5883 5883 5883 5883 5883 5883 5883 5883 5884 5884 5884 5884 5884
5891 5891 5890 5890 5889 5889 5888 5888 5888 5887 5887 5886 5886 5886 5886 5885 5885 5885 5885 5884 5883 5883 5882 5882 5882 5882 5882 5882 5882 5882 5882 5882 5882 5882 5882 5882 5882 5882 5882 5883 5883 5883 5883
5893 5892 5892 5891 5890 5890 5890 5889 5889 5888 5887 5887 5887 5887 5886 5886 5885 5885 5884 5884 5883 5883 5882 5882 5882 5882 5882 5881 5881 5881 5881 5881 5881 5881 5881 5881 5881 5881 5881 5881 5882 5882 5882
5894 5894 5893 5892 5892 5891 5890 5890 5890 5889 5888 5888 5888 5887 5887 5886 5885 5884 5884 5884 5883 5882 5882 5881 5881 5881 5881 5880 5880 5880 5879 5879 5879 5880 5880 5880 5880 5880 5880 5880 5880 5880 5880
5896 5895 5894 5893 5893 5892 5891 5891 5890 5890 5889 5889 5888 5887 5886 5886 5885 5884 5883 5883 5882 5882 5881 5881 5880 5880 5879 5879 5878 5878 5878 5878 5878 5878 5878 5878 5878 5878 5878 5878 5878 5878 5878
5897 5896 5895 5894 5893 5892 5892 5891 5890 5890 5889 5889 5888 5887 5886 5886 5885 5884 5883 5882 5882 5881 5880 5880 5879 5879 5878 5877 5877 5877 5876 5877 5876 5875 5876 5876 5876 5876 5876 5875 5875 5875 5875
5898 5897 5896 5895 5894 5893 5892 5891 5890 5890 5889 5888 5888 5887 5886 5885 5884 5884 5883 5882 5881 5880 5879 5878 5878 5877 5876 5876 5876 5875 5875 5874 5874 5874 5874 5874 5873 5873 5873 5873 5873 5873 5872
5898 5897 5896 5895 5894 5893 5892 5891 5890 5890 5889 5888 5887 5886 5885 5885 5884 5883 5882 5881 5880 5879 5878 5877 5876 5876 5875 5874 5874 5873 5873 5872 5872 5872 5871 5871 5871 5871 5870 5870 5870 5870 5870
5899 5898 5897 5895 5894 5893 5892 5891 5890 5889 5888 5887 5887 5886 5884 5884 5883 5882 5881 5880 5879 5878 5877 5876 5875 5874 5873 5872 5872 5871 5870 5870 5870 5869 5869 5868 5868 5868 5867 5867 5867 5867 5867
5899 5898 5897 5895 5894 5893 5892 5890 5889 5888 5887 5886 5885 5884 5883 5882 5882 5880 5879 5878 5877 5876 5875 5874 5873 5872 5871 5870 5869 5869 5868 5868 5867 5867 5867 5866 5866 5865 5864 5864 5864 5864 5863
5899 5898 5896 5895 5894 5892 5891 5890 5889 5888 5887 5885 5884 5883 5882 5881 5880 5879 5878 5876 5875 5874 5873 5872 5871 5870 5869 5868 5867 5866 5866 5865 5865 5865 5864 5863 5863 5861 5860 5860 5861 5860 5860
5898 5897 5896 5894 5893 5892 5890 5889 5888 5887 5885 5884 5883 5882 5880 5879 5878 5877 5875 5874 5873 5872 5871 5869 5868 5867 5866 5866 5865 5864 5863 5863 5862 5861 5860 5860 5859 5858 5858 5857 5857 5857 5857
5897 5896 5894 5893 5892 5891 5889 5888 5887 5886 5884 5883 5881 5880 5879 5877 5876 5874 5873 5872 5871 5869 5868 5867 5866 5865 5864 5863 5862 5861 5860 5860 5858 5858 5857 5856 5855 5855 5854 5854 5853 5853 5853
5896 5895 5893 5892 5891 5890 5888 5887 5886 5884 5883 5881 5880 5878 5876 5875 5873 5872 5871 5869 5868 5867 5865 5864 5863 5862 5861 5860 5859 5858 5857 5856 5854 5854 5853 5852 5851 5851 5850 5850 5850 5849 5849
5895 5893 5892 5891 5890 5888 5887 5885 5884 5882 5881 5879 5878 5876 5874 5873 5871 5869 5868 5866 5865 5864 5862 5861 5860 5859 5858 5857 5856 5855 5853 5852 5851 5850 5849 5849 5848 5847 5846 5846 5845 5845 5844
5893 5892 5891 5890 5888 5887 5885 5884 5882 5880 5878 5877 5875 5873 5872 5870 5869 5867 5865 5864 5862 5860 5859 5858 5856 5855 5854 5853 5852 5851 5849 5848 5847 5846 5845 5844 5843 5843 5842 5841 5841 5840 5839